STARLINK-30223, 57603

Orbit data source: Space-Track

STARLINK-30223, 57603 is a payload satellite owned by SpaceX/Seattle (US) in LEO that was launched on Fri, 11 Aug 2023 UTC via an FALCON 9 launch vehicle from the Air Force Eastern Test Range (AFETR). Payload-class satellites include a variety of spacecraft equipped with specific instruments for various scientific and technological missions. These include communications satellites like Starlink; space stations such as the ISS; scientific satellites like the Hubble; Earth observation satellites from companies like Planet Labs, Umbra, and HawkEye 360; GPS; miniature CubeSats for education and research; and military/defense satellites.

Loading next visibility...
Identifier
57603, 2023-119B
Orbit
LEO
Country
Flag of USUS
Related business
Manufacturer
SpaceX/Seattle
Mission
Operational Commercial Communications
Bus & Motor
STARLINK V2M, Unknown motor
Mass
730 kg wet, ~700 kg dry
Launch date (UTC)
2023-08-11 (3 years ago)
Launch vehicle
FALCON 9
Launch site
Air Force Eastern Test Range (AFETR)
Object type
Payload
Rocket body
Debris
Shape & HBR
Box + 2 Pan, 17.7 m
Radar Cross Section
33.884 m², Large (>1 m²)

Expand to show TLE details & history
Last TLE update: 1 day ago

TLE from 1 day ago
0 STARLINK-30223
1 57603U 23119B   26093.98281115  .00049853  00000-0  31835-2 0  9993
2 57603  42.9996 303.0645 0003643 270.2250  89.8177 15.07924816146898
Epoch: 2026-04-03T23:35Z
TLE epoch observation values (Epoch: 2026-04-03T23:35:14.883Z)
Latitude
-0°
Longitude
116.94336°
Altitude
542.312 km
Speed
7.593 km/s
True Right ascension
20h 12m 15s
True Declination
0° 00' 00"
Sunlit
Object was in daylight at epoch
Visualization orbit readout
Latitude
Unknown
Longitude
Unknown
Altitude
Unknown
Speed
Unknown
Apparent Right ascension
Unknown
Apparent Declination
Unknown
Sunlit
N/A
Visualization observer readout
Local Sidereal Time
15:28:08
Azimuth
Unknown
Elevation
Unknown
Doppler factor
Unknown
Orbital elements
Apogee altitude
546.993 km
Perigee altitude
541.949 km
Semi-major axis
6,922.608 km
Eccentricity
0.00036
Inclination
42.9996°
RAAN
303.0645°
Arg. of periapsis
270.225°
True anomaly
89.85945°
Mean anomaly
89.8177°
Eccentric anomaly
89.83857°
Mean motion
3.76824 °/min
Orbital period
95.54 mins
BSTAR
0.0031835
Loading maneuver chart data...
Computing Atmospheric mass density...
Loading historical data...
Loading historical data...
Loading historical data...
Loading historical data...
Loading historical data...
Loading historical data...
Loading historical data...

Documentation

Showing up to 5 results
|